COSMOS 1574

Satellite information

Favourite Embed

Satellite Type and Status

PAYLOADIN ORBIT

Key statistics

Satellite COSMOS 1574 at a glance.

Uptime

15055

Days in orbit

Revolutions

≈ 13.7

Per day

Orbit

LEO

Low Earth Orbit

Inclination

83.0

Latest

Satellite identification and parameters

Extended collection of information and parameters for COSMOS 1574.

Object identification

Identified? True

Debris? False

Object name: COSMOS 1574

International designator: 1984-062A

Object number (NORAD): 15055

Object ID (CCSDS): 15055

Country: COMMONWEALTH OF INDEPENDENT STATES (CIS)

Current information (Y/N): Y

RCS size: LARGE

Orbital parameters

Period: 104.763 minutes

Inclination: 82.9542 deg

SMA: 7361.503 km

Apoapsis: 1004.418 km

Periapsis: 962.319 km

RAAN: 286.1958 deg

Eccentricy: 0.00285946

Argument of periapsis: 115.3942 deg

Mean anomaly: 358.559 deg

Mean motion: 13.74526062 rev/day

Mean motion (dot): 0.00000071 rev/day2

B* drag term: 0.000058679088 1/REarth

Two-line elements (TLE)

Creation date: Sept. 8, 2025, 6:18 p.m.

Reference frame: TEME

Reference center: EARTH

Epoch: Sept. 8, 2025, 2:30 p.m. UTC

TLE line 0: 0 COSMOS 1574

TLE line 1: 1 15055U 84062A 25251.60431472 .00000071 00000-0 58679-4 0 9995

TLE line 2: 2 15055 82.9542 286.1958 0028595 115.3942 358.5590 13.74526062 66879

Live tracking on map

Real-time ground track for satellite COSMOS 1574.

In-orbit conjunctions

A list of the most updated potential collisions computed for object COSMOS 1574.

Target Orbit TCA Probability of collision Miss distance Type
COSMOS 249 DEB * LEO 2025-01-31 17:35:09 0.0001677722 878.0 (m) DEBRIS
CZ-6A DEB SSO 2024-06-06 22:01:41 0.0001455021 129.0 (m) DEBRIS

Associated space launch

Civilian navigation satellite equivalent to the purely military Parus

COSMOS 1574 was lifted into orbit during the mission ‘Kosmos-3M | Nadezhda 3’, on board a Kosmos-3M space rocket.

The launch took place on June 21, 1984, 7:40 p.m. from 132/2.

For more information about the launch, click the button.

Launch to space Kosmos-3M | Nadezhda 3
Kosmos-3M | Nadezhda 3

Agency: N/A

Status: Launch Successful

Launch date: June 21, 1984, 7:40 p.m. UTC

Rocket: Kosmos-3M

Launch pad: 132/2

Location: Plesetsk Cosmodrome, Russian Federation

...

Latest news about this satellite

There are no fresh news available about this satellite. Check back as we update our databases every day.


Newsletter sign-up

Weekly statistics, charts and insights to help you stay on top of the space industry.